Regional Weather Roundup
Issued by NWS Kansas City/Pleasant Hill, MO

Home | Current Version | Previous Version | Graphics & Text | Print | Product List | Glossary Off
Versions: 1 2 3 4 5 6 7 8 9 10 11 12 13 14 15 16 17 18 19 20 21 22 23 24 25 26 27 28 29 30 31 32 33 34 35 36 37 38 39 40 41 42 43 44 45 46 47 48 49 50

000
ASUS43 KEAX 210310
RWREAX

WEATHER ROUNDUP FOR EASTERN KANSAS AND NORTHWEST MISSOURI
NATIONAL WEATHER SERVICE KANSAS CITY/PLEASANT HILL MO
1000 PM CDT WED AUG 20 2014

KSZ040-057-103>105-MOZ028-029-037-043-210400-
...KANSAS CITY METROPOLITAN AREA...

CITY           SKY/WX    TMP DP  RH WIND       PRES   REMARKS
K.C. INTL      CLEAR     81  71  71 S12       29.87R
K.C. DOWNTOWN  CLEAR     86  68  54 S10       29.86R
LEES SUMMIT    CLEAR     83  68  60 S9        29.89R
OLATHE - IXD   CLEAR     79  67  66 S9        29.88R
OLATHE - OJC   CLEAR     79  68  69 S8        29.88R
LAWRENCE       CLEAR     83  67  58 SE7       29.85R

$$

MOZ001>008-011>017-020>025-030>033-038>040-044>046-053-054-210400-
...NORTHERN AND CENTRAL MISSOURI...

CITY           SKY/WX    TMP DP  RH WIND       PRES   REMARKS
ST. JOSEPH     CLEAR     80  74  81 S8        29.83R
MOSBY          CLEAR     82  68  61 S6        29.86R
WHITEMAN AFB   PTCLDY    78  68  73 S6        29.90R
CLINTON        CLEAR     81  72  74 CALM      29.92R
SEDALIA        CLEAR     78  71  79 S8        29.92R
WARSAW         NOT AVBL
MARSHALL       CLEAR     79  73  83 SE5       29.92R
CHILLICOTHE      N/A     83  74  74 SE6       29.88R
MOBERLY        CLEAR     77  70  78 SE7       29.92R
KIRKSVILLE     CLEAR     78  74  87 S8        29.91R

$$

MOZ041-047>049-056>058-063>065-088>090-097-210400-
...EASTERN AND SOUTHERN MISSOURI...

CITY           SKY/WX    TMP DP  RH WIND       PRES   REMARKS
ST. LOUIS INTL CLOUDY    76  70  82 E6        29.99R
SPIRIT OF STL  CLOUDY    74  72  93 NE6       29.96R
COLUMBIA       CLEAR     75  73  93 SE8       29.94R
JEFFERSON CITY PTCLDY    75  72  90 SE5       29.93R
MEXICO         PTCLDY   N/A N/A N/A S6        29.93R
HANNIBAL       CLEAR     81  75  83 S6        29.92S
ROLLA          MOCLDY    74  68  81 E13       29.96R
LEBANON        CLEAR     79  63  57 S7        29.99R
OSAGE BEACH    CLEAR     77  72  83 E3        29.95R
SPRINGFIELD    CLEAR     80  62  54 S9        29.97R
BRANSON        CLEAR     79  66  65 S7        30.01R
NEVADA         CLEAR     79  64  61 S8        29.93R
JOPLIN         CLEAR     81  62  52 S13       29.93R
WEST PLAINS    MOCLDY    82  58  43 SW5       30.03R

$$

IAZ060-094-KSZ022-034>040-054-083-096-NEZ052-066-093-210400-
...KANSAS...SOUTHEAST NEBRASKA AND IOWA...

CITY           SKY/WX    TMP DP  RH WIND       PRES   REMARKS
TOPEKA         PTCLDY    87  67  51 S10       29.83R HX  90
MANHATTAN      CLEAR     87  68  52 S13G20    29.80R HX  90
EMPORIA        PTCLDY    80  66  62 S16       29.85R
CHANUTE        CLEAR     82  68  62 S15       29.90R
WICHITA        PTCLDY    83  64  52 S13       29.84R
OMAHA          PTCLDY    82  72  71 SE15      29.78R
LINCOLN        CLEAR     86  69  56 S12       29.77R HX  90
FALLS CITY     CLEAR     81  73  76 SE7       29.80R
LAMONI         CLEAR     79  74  84 SE9       29.86R
DES MOINES     PTCLDY    78  73  84 S7        29.82S

$$



USA.gov is the U.S. government's official web portal to all federal, state and local government web resources and services.